Flag for Italy Weather past 2 weeks in Cagliari, Italy

Now
73 °F

Sunny.


Feels Like: 73 °F
Forecast: 71 / 93 °F
Wind: 8 mph from Northwest

Location: Cagliari / Elmas

Current Time: Aug 5, 2015 at 9:11:54 AM

Latest Report: Aug 5, 2015 at 8:20 AM


Visibility: 10 mi

Pressure: 29.98 "Hg

Humidity: 83%

Dew point: 68 °F

Location of CagliariLocation

Historic Weather in Cagliari — Graph

°F

Cagliari temperature yesterday

Maximum temperature yesterday: 90 °F (at 11:20 AM)
Minimum temperature yesterday: 68 °F (at 6:20 AM)
Average temperature yesterday: 80 °F

Past Weeks' High & Low Weather Summary

 TemperatureHumidityPressure
High99 °F (Jul 29, 2:50 PM)94% (Jul 21, 7:20 AM)30.01 "Hg (Jul 21, 7:20 AM)
Low68 °F (Jul 27, 5:50 AM)28% (Aug 1, 7:50 PM)29.77 "Hg (Jul 30, 12:50 PM)
Average82 °F67%29.88 "Hg
* Reported Jul 21 7:20 AM — Aug 5 7:50 AM, Cagliari, Weather by CustomWeather, © 2015

Note: Actual official high and low records may vary slightly from our data, if they occured in-between our weather recording intervals... More about our weather records

Advertising

Cagliari weather history for previous 24 hours

 ConditionsComfort  
Time TempWeatherWind HumidityBarometerVisibility
7:50 AM
Wed, Aug 5
72 °FSunny.8 mph83%29.98 "Hg10 mi
7:20 AM72 °FClear.10 mph83%29.95 "Hg10 mi
6:50 AM70 °FClear.8 mph88%29.95 "Hg10 mi
6:20 AM70 °FClear.7 mph88%29.95 "Hg10 mi
5:50 AM72 °FClear.9 mph88%29.95 "Hg10 mi
4:50 AM72 °FClear.6 mph88%29.95 "Hg10 mi
4:20 AM72 °FClear.7 mph88%29.95 "Hg10 mi
3:50 AM72 °FClear.8 mph83%29.95 "Hg10 mi
3:20 AM73 °FClear.8 mph83%29.95 "Hg10 mi
2:50 AM73 °FClear.8 mph83%29.95 "Hg10 mi
2:20 AM73 °FClear.7 mph83%29.95 "Hg10 mi
1:50 AM75 °FClear.8 mph78%29.95 "Hg10 mi
1:20 AM75 °FClear.9 mph83%29.95 "Hg10 mi
12:50 AM77 °FClear.9 mph79%29.95 "Hg10 mi
12:20 AM77 °FClear.5 mph79%29.95 "Hg10 mi
11:50 PM
Tue, Aug 4
77 °FClear.8 mph74%29.95 "Hg10 mi
11:20 PM79 °FClear.8 mph70%29.95 "Hg10 mi
10:50 PM79 °FClear.8 mph70%29.95 "Hg10 mi
10:20 PM79 °FClear.8 mph70%29.95 "Hg10 mi
9:50 PM81 °FClear.9 mph62%29.95 "Hg10 mi
9:20 PM81 °FSunny.13 mph62%29.95 "Hg10 mi
8:50 PM82 °FSunny.10 mph58%29.95 "Hg10 mi
8:20 PM84 °FPassing clouds.6 mph62%29.95 "HgN/A
7:50 PM84 °FSunny.7 mph58%29.92 "Hg10 mi
7:20 PM84 °FSunny.10 mph62%29.92 "Hg10 mi
6:50 PM84 °FSunny.12 mph66%29.92 "Hg10 mi
6:20 PM86 °FSunny.14 mph59%29.92 "Hg10 mi
5:50 PM88 °FSunny.14 mph52%29.92 "Hg10 mi
5:20 PM88 °FSunny.12 mph55%29.95 "Hg10 mi
4:50 PM86 °FSunny.14 mph62%29.92 "Hg10 mi
4:20 PM86 °FSunny.14 mph62%29.92 "Hg10 mi
3:50 PM88 °FSunny.15 mph55%29.92 "Hg10 mi
3:20 PM88 °FSunny.17 mph52%29.92 "Hg10 mi
2:50 PM88 °FSunny.15 mph55%29.92 "Hg10 mi
2:20 PM88 °FSunny.13 mph55%29.95 "Hg10 mi
1:50 PM88 °FSunny.13 mph55%29.95 "Hg10 mi
1:20 PM88 °FSunny.12 mph55%29.95 "Hg10 mi
12:50 PM88 °FSunny.12 mph52%29.95 "Hg10 mi
12:20 PM90 °FPassing clouds.9 mph41%29.98 "HgN/A
11:50 AM90 °FPassing clouds.5 mph38%29.98 "HgN/A
11:20 AM90 °FSunny.3 mph38%29.98 "Hg10 mi
10:50 AM88 °FPassing clouds.3 mph43%29.98 "HgN/A
10:20 AM84 °FPassing clouds.3 mph48%29.98 "HgN/A
9:50 AM81 °FPassing clouds.8 mph58%29.98 "HgN/A
9:20 AM79 °FSunny.7 mph61%29.98 "Hg10 mi
Weather by CustomWeather, © 2015

See weather overviewHow to use our weather pages